World > North America > United States > Wyoming > Urie  

Urie, WY Hourly Weather Updates

Feedback E-mail the Weather

Quick Clicks

Urie, WY Weather Maps

°F °C°F °C
Urie Weather Map
UTC Time: 4/21/2024, 19:11
Your Time:

Urie, WY Regional Weather

Expires:202404212000;;143479
ASUS45 KCYS 211910
RWRWY 

WYOMING REGIONAL WEATHER ROUNDUP
NATIONAL WEATHER SERVICE CHEYENNE WY
100 PM MDT SUN APR 21 2024

NOTE:  "FAIR" INDICATES FEW OR NO CLOUDS BELOW 12,000 FEET
WITH NO SIGNIFICANT WEATHER AND/OR OBSTRUCTIONS TO VISIBILITY.


WYZ021-027>030-104>119-212000-
SOUTHERN WYOMING
  
CITY           SKY/WX    TMP DP  RH WIND       PRES   REMARKS
EVANSTON       FAIR      63  25  23 SW13G30   30.23F                  
KEMMERER       FAIR      59  19  21 NW15G24   30.23F                  
ROCK SPRINGS   FAIR      59  23  25 W14G21    30.21F                  
DIXON          FAIR      58  18  20 SW8       30.26F                  
RAWLINS        FAIR      57  16  20 SW14G29   30.20F                  
SARATOGA       FAIR      55  10  16 W16G23    30.23F                  
LARAMIE        FAIR      56  17  21 VRB5      30.19F                  
CHEYENNE       FAIR      47  34  60 S17G28    30.21F                  
TORRINGTON     FAIR      62  24  23 S16       30.15F                  
PINE BLUFFS      N/A     46  32  57 SW20G25   30.23F                  

$$
  

SKY/WX - Weather  TMP - Temperature  DP - Dew Point  RH - Humidity
WIND - Wind Direction/Speed PRES - Barometric Pressure VSB - Visibility
WCI - Wind Chill Index E13G22 Wind - East Wind 13 mph/Gusts of 22 mph

Trending Headlines

Trending Entertainment Headlines

Urie Radar Loop

Use the map search tool if you want to place a location marker on the radar map...

Urie Quick Facts

National Two Day Weather Forecast


E-mail the Urie Weather Forecast

Voice your opinion or tell us about page issues...